Location: Gand�
(15.0971°N, 12.6564°W)
Time: 13:05:33
(UTC+00:00)

Meteosat 1 Rocket2 - Pass Details

Date: 07 August 2020
Orbit: 485 x 2306 km, 28.3° (Epoch: 19 September)

Event Time Altitude Azimuth Distance (km) Brightness Sun altitude
Exits shadow 05:24:47 28° 261° (W) 1,311 4.1 -16.7°
Maximum altitude 05:27:16 64° 334° (NNW) 690 3.2 -16.2°
Drops below altitude 10° 05:31:11 10° 57° (ENE) 1,771 6.7 -15.3°
Sets 05:33:10 0° 61° (ENE) 2,582 8.1 -14.8°
